Time,TemperatureF,DewpointF,PressureIn,WindDirection,WindDirectionDegrees,WindSpeedMPH,WindSpeedGustMPH,Humidity,HourlyPrecipIn,Conditions,Clouds,dailyrainin,SoftwareType,DateUTC
2013-07-26 00:02:00,59.0,51.0,30.08,SSW,202,0.0,0.0,76,0.00,,,0.00,,2013-07-26 04:02:00,
2013-07-26 00:23:00,59.0,52.0,30.08,SSW,202,0.0,0.0,78,0.00,,,0.00,,2013-07-26 04:23:00,
2013-07-26 00:32:00,59.0,52.0,30.08,SSW,202,0.0,0.0,78,0.00,,,0.00,,2013-07-26 04:32:00,
2013-07-26 00:42:00,59.0,52.0,30.08,SSW,202,0.0,0.0,78,0.00,,,0.00,,2013-07-26 04:42:00,
2013-07-26 00:53:00,58.0,52.0,30.08,SSW,202,0.0,0.0,79,0.00,,,0.00,,2013-07-26 04:53:00,
2013-07-26 01:02:00,58.0,52.0,30.08,SSW,202,0.0,0.0,79,0.00,,,0.00,,2013-07-26 05:02:00,
2013-07-26 01:12:00,58.0,52.0,30.07,SSW,202,0.0,0.0,79,0.00,,,0.00,,2013-07-26 05:12:00,
2013-07-26 01:22:00,58.0,52.0,30.07,SSW,202,0.0,0.0,79,0.00,,,0.00,,2013-07-26 05:22:00,
2013-07-26 01:32:00,58.0,52.0,30.07,SSW,202,0.0,0.0,79,0.00,,,0.00,,2013-07-26 05:32:00,
2013-07-26 01:52:00,56.0,50.0,30.07,SSW,202,0.0,0.0,79,0.00,,,0.00,,2013-07-26 05:52:00,
2013-07-26 02:43:00,55.0,49.0,30.07,SSW,202,0.0,0.0,81,0.00,,,0.00,,2013-07-26 06:43:00,
2013-07-26 02:52:00,55.0,49.0,30.07,SSW,202,0.0,0.0,81,0.00,,,0.00,,2013-07-26 06:52:00,
2013-07-26 03:02:00,55.0,49.0,30.07,SSW,202,0.0,0.0,81,0.00,,,0.00,,2013-07-26 07:02:00,
2013-07-26 03:22:00,54.0,48.0,30.07,SSW,202,0.0,0.0,81,0.00,,,0.00,,2013-07-26 07:22:00,
2013-07-26 03:32:00,54.0,48.0,30.07,SSW,202,0.0,0.0,81,0.00,,,0.00,,2013-07-26 07:32:00,
2013-07-26 03:43:00,54.0,48.0,30.07,SSW,202,0.0,0.0,81,0.00,,,0.00,,2013-07-26 07:43:00,
2013-07-26 03:53:00,54.0,49.0,30.08,SSW,202,0.0,0.0,82,0.00,,,0.00,,2013-07-26 07:53:00,
2013-07-26 04:02:00,54.0,49.0,30.08,SSW,202,0.0,0.0,82,0.00,,,0.00,,2013-07-26 08:02:00,
2013-07-26 04:12:00,54.0,49.0,30.08,SSW,202,0.0,0.0,82,0.00,,,0.00,,2013-07-26 08:12:00,
2013-07-26 04:22:00,53.0,48.0,30.07,SSW,202,0.0,0.0,82,0.00,,,0.00,,2013-07-26 08:22:00,
2013-07-26 04:32:00,53.0,48.0,30.07,SSW,202,0.0,0.0,82,0.00,,,0.00,,2013-07-26 08:32:00,
2013-07-26 04:44:00,53.0,48.0,30.07,SSW,202,0.0,0.0,82,0.00,,,0.00,,2013-07-26 08:44:00,
2013-07-26 04:52:00,53.0,48.0,30.07,SSW,202,0.0,0.0,82,0.00,,,0.00,,2013-07-26 08:52:00,
2013-07-26 05:02:00,53.0,48.0,30.07,SSW,202,0.0,0.0,82,0.00,,,0.00,,2013-07-26 09:02:00,
2013-07-26 05:12:00,53.0,48.0,30.07,SSW,202,0.0,0.0,83,0.00,,,0.00,,2013-07-26 09:12:00,
2013-07-26 05:43:00,52.0,47.0,30.07,SSW,202,0.0,0.0,83,0.00,,,0.00,,2013-07-26 09:43:00,
2013-07-26 05:52:00,52.0,47.0,30.07,SSW,202,0.0,0.0,83,0.00,,,0.00,,2013-07-26 09:52:00,
2013-07-26 06:02:00,52.0,47.0,30.07,SSW,202,0.0,0.0,83,0.00,,,0.00,,2013-07-26 10:02:00,
2013-07-26 06:12:00,52.0,47.0,30.07,SSW,202,0.0,0.0,83,0.00,,,0.00,,2013-07-26 10:12:00,
2013-07-26 06:33:00,52.0,47.0,30.07,SSW,202,0.0,0.0,83,0.00,,,0.00,,2013-07-26 10:33:00,
2013-07-26 06:43:00,52.0,47.0,30.07,SSW,202,0.0,0.0,83,0.00,,,0.00,,2013-07-26 10:43:00,
2013-07-26 06:53:00,51.0,46.0,30.09,SSW,202,0.0,0.0,83,0.00,,,0.00,,2013-07-26 10:53:00,
2013-07-26 07:32:00,51.0,46.0,30.09,SSW,202,0.0,0.0,84,0.00,,,0.00,,2013-07-26 11:32:00,
2013-07-26 07:43:00,51.0,46.0,30.09,SSW,202,0.0,0.0,84,0.00,,,0.00,,2013-07-26 11:43:00,
2013-07-26 07:52:00,51.0,46.0,30.10,SSW,202,0.0,0.0,84,0.00,,,0.00,,2013-07-26 11:52:00,
2013-07-26 08:02:00,51.0,46.0,30.10,SSW,202,0.0,0.0,84,0.00,,,0.00,,2013-07-26 12:02:00,
2013-07-26 08:12:00,51.0,46.0,30.10,SSW,202,0.0,0.0,84,0.00,,,0.00,,2013-07-26 12:12:00,
2013-07-26 08:33:00,52.0,48.0,30.09,SW,225,0.0,0.0,86,0.00,,,0.00,,2013-07-26 12:33:00,
2013-07-26 08:43:00,53.0,49.0,30.09,SW,225,0.0,0.0,86,0.00,,,0.00,,2013-07-26 12:43:00,
2013-07-26 08:53:00,53.0,49.0,30.09,SW,225,0.0,0.0,86,0.00,,,0.00,,2013-07-26 12:53:00,
2013-07-26 09:02:00,53.0,49.0,30.09,SW,225,0.0,0.0,86,0.00,,,0.00,,2013-07-26 13:02:00,
2013-07-26 09:12:00,54.0,50.0,30.10,SW,225,0.0,0.0,87,0.00,,,0.00,,2013-07-26 13:12:00,
2013-07-26 09:23:00,54.0,50.0,30.10,SW,225,0.0,0.0,87,0.00,,,0.00,,2013-07-26 13:23:00,
2013-07-26 09:43:00,57.0,53.0,30.10,SW,225,0.0,0.0,87,0.00,,,0.00,,2013-07-26 13:43:00,
2013-07-26 10:03:00,57.0,53.0,30.09,SW,225,0.0,0.0,87,0.00,,,0.00,,2013-07-26 14:03:00,
2013-07-26 10:12:00,59.0,55.0,30.09,SW,225,0.0,0.0,87,0.00,,,0.00,,2013-07-26 14:12:00,
2013-07-26 10:32:00,60.0,56.0,30.10,SW,225,0.0,0.0,86,0.00,,,0.00,,2013-07-26 14:32:00,
2013-07-26 10:43:00,62.0,57.0,30.10,SSW,202,0.0,0.0,83,0.00,,,0.00,,2013-07-26 14:43:00,
2013-07-26 10:53:00,62.0,57.0,30.10,SSW,202,0.0,0.0,83,0.00,,,0.00,,2013-07-26 14:53:00,
2013-07-26 11:03:00,62.0,57.0,30.10,SSW,202,0.0,0.0,83,0.00,,,0.00,,2013-07-26 15:03:00,
2013-07-26 11:12:00,62.0,57.0,30.10,SSW,202,0.0,0.0,83,0.00,,,0.00,,2013-07-26 15:12:00,
2013-07-26 11:33:00,67.0,60.0,30.10,SSW,202,0.0,0.0,77,0.00,,,0.00,,2013-07-26 15:33:00,
2013-07-26 11:43:00,70.0,61.0,30.10,SW,225,0.0,0.0,73,0.00,,,0.00,,2013-07-26 15:43:00,
2013-07-26 11:53:00,71.0,61.0,30.10,SW,225,0.0,0.0,70,0.00,,,0.00,,2013-07-26 15:53:00,
2013-07-26 12:03:00,71.0,61.0,30.10,SW,225,0.0,0.0,70,0.00,,,0.00,,2013-07-26 16:03:00,
2013-07-26 12:14:00,71.0,61.0,30.10,SW,225,0.0,0.0,70,0.00,,,0.00,,2013-07-26 16:14:00,
2013-07-26 12:22:00,71.0,61.0,30.10,SW,225,0.0,0.0,70,0.00,,,0.00,,2013-07-26 16:22:00,
2013-07-26 12:32:00,71.0,61.0,30.10,SW,225,0.0,0.0,70,0.00,,,0.00,,2013-07-26 16:32:00,
2013-07-26 12:43:00,75.0,61.0,30.09,SSW,208,0.0,0.0,61,0.00,,,0.00,,2013-07-26 16:43:00,
2013-07-26 12:54:00,76.0,60.0,30.09,West,270,0.0,0.0,58,0.00,,,0.00,,2013-07-26 16:54:00,
2013-07-26 13:03:00,76.0,60.0,30.09,West,270,0.0,0.0,58,0.00,,,0.00,,2013-07-26 17:03:00,
2013-07-26 13:12:00,76.0,60.0,30.09,West,270,0.0,0.0,58,0.00,,,0.00,,2013-07-26 17:12:00,
2013-07-26 13:33:00,77.0,62.0,30.08,SSW,202,0.0,0.0,59,0.00,,,0.00,,2013-07-26 17:33:00,
2013-07-26 13:53:00,78.0,62.0,30.07,South,180,0.0,0.0,58,0.00,,,0.00,,2013-07-26 17:53:00,
2013-07-26 14:12:00,78.0,61.0,30.06,SSW,202,0.0,0.0,56,0.00,,,0.00,,2013-07-26 18:12:00,
2013-07-26 14:33:00,78.0,62.0,30.06,SW,215,0.0,1.0,57,0.00,,,0.00,,2013-07-26 18:33:00,
2013-07-26 14:44:00,78.0,62.0,30.06,SW,215,0.0,1.0,57,0.00,,,0.00,,2013-07-26 18:44:00,
2013-07-26 14:53:00,79.0,61.0,30.06,SSW,209,0.0,0.0,54,0.00,,,0.00,,2013-07-26 18:53:00,
2013-07-26 15:03:00,79.0,61.0,30.06,SSW,209,0.0,0.0,54,0.00,,,0.00,,2013-07-26 19:03:00,
2013-07-26 15:12:00,79.0,61.0,30.06,SSW,209,0.0,0.0,54,0.00,,,0.00,,2013-07-26 19:12:00,
2013-07-26 15:22:00,79.0,60.0,30.05,SSW,202,0.0,0.0,52,0.00,,,0.00,,2013-07-26 19:22:00,
2013-07-26 15:32:00,79.0,59.0,30.05,SSW,210,0.0,0.0,50,0.00,,,0.00,,2013-07-26 19:32:00,
2013-07-26 15:43:00,79.0,59.0,30.05,SSW,210,0.0,0.0,50,0.00,,,0.00,,2013-07-26 19:43:00,
2013-07-26 15:52:00,79.0,57.0,30.05,SSW,206,0.0,3.0,47,0.00,,,0.00,,2013-07-26 19:52:00,
2013-07-26 16:22:00,79.0,58.0,30.04,SSW,209,1.0,3.0,49,0.00,,,0.00,,2013-07-26 20:22:00,
2013-07-26 16:32:00,79.0,57.0,30.04,SW,224,0.0,0.0,47,0.00,,,0.00,,2013-07-26 20:32:00,
2013-07-26 16:43:00,79.0,57.0,30.03,SW,225,0.0,0.0,47,0.00,,,0.00,,2013-07-26 20:43:00,
2013-07-26 16:53:00,79.0,57.0,30.03,SW,225,0.0,0.0,47,0.00,,,0.00,,2013-07-26 20:53:00,
2013-07-26 17:02:00,79.0,55.0,30.04,SW,233,0.0,2.0,44,0.00,,,0.00,,2013-07-26 21:02:00,
2013-07-26 17:22:00,79.0,56.0,30.03,WSW,248,0.0,0.0,46,0.00,,,0.00,,2013-07-26 21:22:00,
2013-07-26 17:32:00,79.0,57.0,30.03,SSW,202,0.0,0.0,47,0.00,,,0.00,,2013-07-26 21:32:00,
2013-07-26 17:43:00,79.0,59.0,30.02,WSW,248,0.0,0.0,50,0.00,,,0.00,,2013-07-26 21:43:00,
2013-07-26 17:53:00,79.0,59.0,30.02,WSW,248,0.0,0.0,50,0.00,,,0.00,,2013-07-26 21:53:00,
2013-07-26 18:12:00,78.0,58.0,30.02,SSW,202,0.0,0.0,50,0.00,,,0.00,,2013-07-26 22:12:00,
2013-07-26 18:22:00,78.0,58.0,30.03,SSW,202,0.0,2.0,51,0.00,,,0.00,,2013-07-26 22:22:00,
2013-07-26 19:22:00,76.0,57.0,30.02,SW,225,0.0,0.0,51,0.00,,,0.00,,2013-07-26 23:22:00,
2013-07-26 19:32:00,76.0,57.0,30.02,SW,225,0.0,0.0,52,0.00,,,0.00,,2013-07-26 23:32:00,
2013-07-26 19:43:00,76.0,58.0,30.02,SW,225,0.0,0.0,53,0.00,,,0.00,,2013-07-26 23:43:00,
2013-07-26 19:53:00,76.0,58.0,30.02,SW,225,0.0,0.0,53,0.00,,,0.00,,2013-07-26 23:53:00,
2013-07-26 20:02:00,75.0,57.0,30.02,SW,225,0.0,0.0,54,0.00,,,0.00,,2013-07-27 00:02:00,
2013-07-26 20:12:00,75.0,57.0,30.02,SW,225,0.0,0.0,54,0.00,,,0.00,,2013-07-27 00:12:00,
2013-07-26 20:22:00,74.0,57.0,30.02,SW,225,0.0,0.0,55,0.00,,,0.00,,2013-07-27 00:22:00,
2013-07-26 20:32:00,74.0,57.0,30.02,SW,225,0.0,0.0,55,0.00,,,0.00,,2013-07-27 00:32:00,
2013-07-26 20:43:00,73.0,56.0,30.02,SW,225,0.0,0.0,56,0.00,,,0.00,,2013-07-27 00:43:00,
2013-07-26 20:53:00,73.0,57.0,30.02,SW,225,0.0,0.0,57,0.00,,,0.00,,2013-07-27 00:53:00,
2013-07-26 21:02:00,73.0,57.0,30.02,SW,225,0.0,0.0,57,0.00,,,0.00,,2013-07-27 01:02:00,
2013-07-26 21:12:00,71.0,56.0,30.02,SW,225,0.0,0.0,60,0.00,,,0.00,,2013-07-27 01:12:00,
2013-07-26 21:22:00,70.0,56.0,30.02,SW,225,0.0,0.0,62,0.00,,,0.00,,2013-07-27 01:22:00,
2013-07-26 21:32:00,70.0,56.0,30.02,SW,225,0.0,0.0,62,0.00,,,0.00,,2013-07-27 01:32:00,
2013-07-26 21:43:00,69.0,55.0,30.02,SW,225,0.0,0.0,62,0.00,,,0.00,,2013-07-27 01:43:00,
2013-07-26 21:53:00,69.0,56.0,30.03,SW,225,0.0,0.0,63,0.00,,,0.00,,2013-07-27 01:53:00,
2013-07-26 22:02:00,68.0,55.0,30.02,SW,225,0.0,0.0,64,0.00,,,0.00,,2013-07-27 02:02:00,
2013-07-26 22:12:00,68.0,55.0,30.02,SW,225,0.0,0.0,64,0.00,,,0.00,,2013-07-27 02:12:00,
2013-07-26 22:22:00,67.0,56.0,30.03,SW,225,0.0,0.0,67,0.00,,,0.00,,2013-07-27 02:22:00,
2013-07-26 22:32:00,66.0,55.0,30.03,SW,225,0.0,0.0,68,0.00,,,0.00,,2013-07-27 02:32:00,
2013-07-26 22:43:00,65.0,55.0,30.03,SW,225,0.0,0.0,69,0.00,,,0.00,,2013-07-27 02:43:00,
2013-07-26 22:53:00,65.0,55.0,30.03,SW,225,0.0,0.0,69,0.00,,,0.00,,2013-07-27 02:53:00,
2013-07-26 23:03:00,65.0,55.0,30.03,SW,225,0.0,0.0,69,0.00,,,0.00,,2013-07-27 03:03:00,
2013-07-26 23:12:00,65.0,55.0,30.03,SW,225,0.0,0.0,69,0.00,,,0.00,,2013-07-27 03:12:00,
2013-07-26 23:44:00,63.0,54.0,30.02,SW,225,0.0,0.0,72,0.00,,,0.00,,2013-07-27 03:44:00,
2013-07-26 23:52:00,63.0,54.0,30.02,SW,225,0.0,0.0,72,0.00,,,0.00,,2013-07-27 03:52:00,